TimeEDT,TemperatureF,Dew PointF,Humidity,Sea Level PressureIn,VisibilityMPH,Wind Direction,Wind SpeedMPH,Gust SpeedMPH,PrecipitationIn,Events,Conditions,WindDirDegrees,DateUTC
12:22 AM,66.2,66.2,100,29.97,0.8,NE,3.5,-,0.01,,Light Drizzle,50,2012-10-03 04:22:00
12:56 AM,68.0,66.9,96,29.97,0.8,NNE,3.5,-,0.01,,Light Drizzle,30,2012-10-03 04:56:00
1:56 AM,66.9,66.0,97,29.97,0.2,Calm,Calm,-,0.00,Fog,Fog,0,2012-10-03 05:56:00
2:41 AM,66.2,66.2,100,29.97,0.1,NNE,5.8,-,N/A,Fog,Fog,20,2012-10-03 06:41:00
2:56 AM,66.9,66.0,97,29.96,0.1,NNE,5.8,-,N/A,Fog,Fog,30,2012-10-03 06:56:00
3:10 AM,66.2,66.2,100,29.96,0.1,NNE,5.8,-,N/A,Fog,Fog,20,2012-10-03 07:10:00
3:56 AM,66.0,66.0,100,29.97,0.2,NNE,4.6,-,N/A,Fog,Fog,30,2012-10-03 07:56:00
4:56 AM,66.0,64.9,96,29.98,0.2,NNE,5.8,-,N/A,Fog,Fog,30,2012-10-03 08:56:00
5:56 AM,64.9,64.9,100,29.99,0.5,NNE,6.9,-,N/A,Fog,Fog,30,2012-10-03 09:56:00
7:54 AM,64.4,64.4,100,30.03,0.2,North,4.6,-,N/A,Fog,Fog,10,2012-10-03 11:54:00
7:56 AM,64.9,64.9,100,30.03,0.2,North,4.6,-,N/A,Fog,Fog,360,2012-10-03 11:56:00
8:56 AM,64.9,64.9,100,30.05,0.2,NNE,6.9,-,N/A,Fog,Fog,20,2012-10-03 12:56:00
9:31 AM,66.2,64.4,94,30.05,0.5,NNE,6.9,-,N/A,,Overcast,30,2012-10-03 13:31:00
9:56 AM,66.0,66.0,100,30.05,1.0,NNE,6.9,-,N/A,,Overcast,30,2012-10-03 13:56:00
10:36 AM,66.2,66.2,100,30.06,2.0,North,3.5,-,N/A,,Overcast,10,2012-10-03 14:36:00
11:39 AM,69.8,66.2,88,30.07,5.0,NE,3.5,-,N/A,,Overcast,40,2012-10-03 15:39:00
11:56 AM,70.0,66.9,90,30.06,5.0,NNE,3.5,-,N/A,,Overcast,30,2012-10-03 15:56:00
12:56 PM,72.0,66.9,84,30.05,7.0,Calm,Calm,-,N/A,,Overcast,0,2012-10-03 16:56:00
1:56 PM,75.0,69.1,82,30.03,10.0,East,6.9,-,N/A,,Overcast,80,2012-10-03 17:56:00
2:32 PM,73.4,68.0,83,30.04,10.0,SSE,6.9,-,N/A,,Overcast,160,2012-10-03 18:32:00
2:52 PM,71.6,68.0,88,30.04,9.0,SSE,6.9,-,N/A,,Overcast,160,2012-10-03 18:52:00
2:56 PM,72.0,68.0,87,30.04,9.0,South,8.1,-,N/A,,Overcast,170,2012-10-03 18:56:00
3:56 PM,70.0,66.9,90,30.04,4.0,SE,6.9,-,N/A,,Overcast,130,2012-10-03 19:56:00
4:56 PM,68.0,66.9,96,30.06,1.0,ESE,6.9,-,N/A,,Overcast,120,2012-10-03 20:56:00
5:56 PM,68.0,66.0,93,30.07,0.8,South,3.5,-,N/A,,Overcast,170,2012-10-03 21:56:00
6:40 PM,66.2,66.2,100,30.07,0.2,Calm,Calm,-,0.00,Fog,Light Drizzle,0,2012-10-03 22:40:00
6:56 PM,66.9,66.9,100,30.07,0.2,SE,3.5,-,0.00,,Light Drizzle,130,2012-10-03 22:56:00
7:56 PM,66.9,66.9,100,30.08,0.2,Calm,Calm,-,0.00,Fog-Rain,Light Rain,0,2012-10-03 23:56:00
8:56 PM,66.9,66.9,100,30.08,0.2,East,3.5,-,0.00,Fog,Light Drizzle,80,2012-10-04 00:56:00
9:56 PM,66.9,66.9,100,30.09,0.2,Calm,Calm,-,0.00,,Light Drizzle,0,2012-10-04 01:56:00
10:56 PM,66.9,66.9,100,30.11,0.2,SW,3.5,-,0.00,Fog,Fog,230,2012-10-04 02:56:00
11:56 PM,66.9,66.9,100,30.10,0.2,Calm,Calm,-,0.00,Fog,Light Drizzle,0,2012-10-04 03:56:00